RH
18 18 18 18 19 18 21 21 21 23 23 24 24 21 19 18 17 16 16 15 14 19 25 23 22 23 27 32 35 34 36 40 40 39 42 45 43 42 40 39 42 40 41 42 41 37 33 32 31 31 32 31 30 29 28 27 26 25 25 24 22 22 24 25 25 24 24 24 25 28 32 36 41 45 45 44 43 44 46 51 54 54 51 45 40 31 25 27 29 27 25 22 21 22 18 17 24
15 15 16 17 18 17 18 18 20 21 20 21 20 17 15 14 13 13 14 14 16 23 28 25 24 26 28 32 31 31 38 42 38 39 44 43 41 41 38 37 40 40 41 42 40 36 32 31 32 32 33 32 31 30 29 28 28 27 26 24 22 22 24 25 25 25 25 25 26 29 33 37 43 46 45 45 44 44 45 51 55 54 50 44 37 25 17 17 21 23 23 20 18 17 18 22 27
11 11 11 13 14 14 14 14 19 19 17 17 14 12 10 10 10 11 12 13 20 25 27 27 27 28 29 32 32 33 39 40 38 40 42 40 39 38 38 39 40 41 43 43 39 34 32 32 32 33 34 33 32 31 31 30 29 28 27 24 22 22 24 25 25 25 26 26 28 32 36 40 44 46 46 45 44 44 45 50 53 51 46 39 32 22 15 14 16 22 25 22 20 21 24 26 27
6 7 7 9 10 11 11 11 16 17 15 14 11 9 7 8 9 12 12 14 22 24 26 28 28 27 29 33 32 32 34 36 39 38 38 37 38 39 41 44 43 43 44 42 37 33 31 31 32 33 33 32 31 32 32 31 31 30 27 24 23 23 24 26 26 26 27 28 31 36 40 42 44 46 47 46 44 45 45 47 48 45 39 33 28 22 16 14 14 20 26 25 24 30 31 29 28
4 5 8 9 8 9 10 10 13 13 13 11 10 8 6 9 10 14 15 15 21 23 26 28 29 30 31 32 31 33 34 36 38 36 35 36 36 40 44 45 44 44 43 38 33 31 30 29 30 31 32 31 31 32 33 33 33 32 28 25 23 24 25 26 27 27 27 29 32 37 40 42 43 45 47 46 44 45 45 44 42 38 32 28 25 22 18 15 14 17 25 26 28 37 37 32 30
4 5 8 9 8 8 10 11 11 11 9 9 9 7 6 10 11 14 16 18 21 24 26 26 29 32 34 35 34 35 36 37 37 36 37 37 37 39 44 44 45 43 38 31 28 28 27 28 29 30 31 31 32 33 34 34 34 33 29 25 25 25 26 28 28 28 29 30 33 37 40 41 43 45 47 47 44 45 45 41 37 32 28 25 23 22 20 17 15 15 21 25 30 39 41 36 33
5 6 8 8 9 9 11 13 11 10 8 7 8 6 7 10 11 12 14 20 25 25 25 27 29 32 36 37 38 37 36 38 35 36 39 39 38 39 42 42 43 39 31 27 25 26 26 27 28 30 31 31 32 33 34 34 34 34 29 26 26 27 28 29 29 30 30 31 33 36 39 41 43 45 47 46 45 45 43 38 32 29 27 26 23 22 22 19 16 15 17 21 29 40 43 40 36
6 8 8 9 11 10 11 11 10 10 8 7 8 7 9 10 10 11 13 16 22 24 24 27 27 32 38 37 41 40 36 36 33 37 41 41 39 37 38 37 37 32 27 26 26 25 25 26 27 29 30 31 32 32 33 34 35 34 30 27 27 27 28 29 30 31 32 32 32 35 38 40 43 46 47 46 44 44 40 33 28 28 28 27 25 23 23 21 19 17 16 19 28 39 44 43 39
8 10 9 10 11 11 11 10 8 8 6 7 8 8 11 11 11 12 12 13 19 23 26 27 24 32 41 38 41 40 37 36 33 39 44 44 40 34 33 32 33 30 27 26 25 25 25 26 27 27 28 28 29 31 32 33 35 34 30 27 26 27 27 28 29 31 32 32 32 34 37 40 44 47 47 46 43 41 37 32 28 28 29 28 26 24 23 22 21 20 18 20 28 39 46 46 44
9 10 11 11 12 13 13 11 8 7 6 6 8 9 10 11 12 13 11 14 20 25 28 28 26 34 40 39 41 38 37 36 34 42 47 45 40 34 32 30 31 29 26 25 24 25 24 25 26 26 27 26 28 30 31 33 34 33 29 26 25 26 26 26 28 30 31 32 34 36 38 40 44 48 47 44 42 40 36 32 29 28 29 29 26 25 24 24 23 22 21 23 28 39 47 48 48
11 11 11 12 13 15 14 12 9 8 8 8 10 10 11 11 12 12 11 16 22 25 28 27 30 35 38 40 41 38 37 35 36 44 47 45 38 35 32 30 29 25 23 23 24 24 24 26 26 27 26 26 27 29 31 32 33 31 27 25 25 25 24 26 28 30 32 34 37 38 38 39 44 48 47 44 42 41 37 33 30 29 29 28 27 26 25 25 26 26 24 25 29 36 47 50 48
12 12 11 13 14 14 12 11 10 9 10 10 11 11 11 11 11 12 11 16 23 25 25 25 32 34 36 40 40 37 36 35 37 42 44 43 39 35 33 30 27 23 22 22 23 24 26 28 29 28 26 26 27 29 31 32 32 29 26 25 26 26 25 27 29 31 33 35 38 38 37 39 44 47 46 46 44 41 38 35 33 31 30 29 29 28 28 28 29 28 27 29 30 32 43 49 47
13 12 11 13 14 13 12 11 12 11 11 11 11 10 10 10 11 11 12 19 21 23 23 23 29 32 35 39 38 38 36 35 37 39 41 43 41 38 35 31 27 24 23 23 23 25 27 30 31 28 26 26 28 30 31 31 31 28 27 28 27 27 27 29 31 32 33 35 38 39 38 40 45 47 47 49 47 43 40 38 36 34 33 33 33 33 32 31 31 30 28 31 33 31 37 44 46
13 13 12 13 13 13 11 12 12 12 11 10 10 9 9 10 10 11 16 23 22 22 25 25 25 30 36 38 39 39 37 36 37 40 42 44 44 42 40 36 31 26 24 24 24 26 30 33 32 29 28 28 29 31 31 32 31 29 29 30 29 28 29 30 33 33 34 37 39 40 41 42 45 47 49 51 50 45 42 39 38 37 36 35 36 37 37 35 34 32 30 33 35 33 34 38 43
13 13 12 12 12 12 11 11 12 12 11 10 10 9 9 10 11 13 18 24 25 24 26 28 24 29 36 36 38 40 39 39 39 41 44 46 47 45 43 40 36 29 27 28 27 31 35 36 34 31 30 29 30 31 32 33 33 33 32 31 30 29 30 32 32 33 36 38 40 42 43 45 46 47 48 50 50 47 43 39 38 37 36 36 36 37 39 38 37 35 32 34 37 37 35 35 39
14 13 12 12 12 11 11 12 13 13 13 11 10 10 10 13 15 18 19 20 25 26 26 28 25 27 36 37 39 41 41 42 41 42 45 47 48 46 45 42 39 33 30 31 32 35 38 37 36 34 32 32 32 33 33 34 36 36 34 32 31 31 31 32 32 34 36 38 41 42 45 47 48 47 48 49 50 47 43 39 38 37 37 36 36 36 39 41 40 39 36 35 39 41 38 36 37
15 14 12 12 12 11 12 13 14 14 14 12 12 10 11 17 20 22 22 21 25 27 26 30 28 30 38 41 42 43 44 44 41 42 45 48 48 47 47 45 42 36 31 33 36 39 39 39 39 37 35 35 35 35 35 36 38 37 36 35 35 33 32 32 33 34 35 37 40 40 43 46 47 45 47 50 51 47 43 41 39 39 40 39 37 38 41 42 43 44 42 38 40 44 42 39 37
15 15 13 13 11 10 11 14 13 14 15 13 13 13 13 18 24 23 24 27 27 28 32 34 35 37 42 44 44 44 44 43 41 43 46 50 50 47 46 45 42 37 33 35 38 41 42 41 40 40 40 40 38 38 38 38 39 38 37 37 37 35 34 35 35 35 36 38 38 39 41 44 46 44 43 47 51 51 46 44 43 41 42 42 40 41 42 42 43 46 46 42 42 48 49 44 40
15 15 15 13 11 10 12 14 14 14 15 14 15 16 15 18 23 23 26 31 29 31 39 41 40 42 45 46 45 44 43 42 43 44 47 51 51 47 46 46 41 36 36 37 39 42 43 41 41 42 44 44 41 41 42 41 40 39 38 37 38 37 37 37 37 37 37 39 40 40 41 45 47 45 42 44 49 53 49 47 47 44 43 44 43 44 45 43 44 47 48 44 44 49 53 50 45
15 15 15 13 12 13 13 14 14 15 15 15 16 17 17 17 19 22 28 32 32 35 39 42 44 44 46 47 46 47 47 46 48 46 47 48 47 46 47 46 42 37 37 39 41 43 43 42 43 44 46 46 44 44 45 44 41 40 40 40 40 40 40 39 38 38 38 40 41 41 43 46 48 46 44 44 47 51 51 50 50 48 46 46 47 47 47 46 46 49 48 47 47 50 53 52 49
16 16 15 13 14 15 15 15 14 15 15 15 16 17 19 17 18 24 28 32 36 37 35 36 44 47 46 48 49 51 51 51 50 46 46 45 42 44 46 44 41 37 36 40 43 44 45 45 45 47 50 49 47 45 45 45 43 42 42 43 43 42 40 38 37 36 35 37 40 42 44 45 47 47 46 46 46 47 50 51 50 50 49 48 49 48 47 49 51 52 49 48 50 51 51 52 48
17 16 14 13 15 16 16 16 15 15 15 15 15 17 20 19 20 26 28 31 34 34 32 30 38 46 48 49 51 52 52 52 49 44 43 42 42 45 45 43 40 36 36 40 44 46 47 47 47 48 51 51 49 47 45 44 44 44 44 44 44 42 39 37 37 35 34 38 41 42 41 42 46 47 47 48 47 47 48 49 50 51 51 50 51 50 48 51 56 57 53 49 52 52 50 49 47
18 17 15 15 17 17 16 16 16 16 15 16 15 16 20 20 21 27 28 29 31 33 35 34 37 45 50 51 52 51 50 50 47 44 41 40 41 43 42 41 38 36 37 41 43 43 45 47 48 50 51 52 51 48 45 45 44 44 44 44 44 41 39 39 38 37 39 44 47 44 40 42 45 47 49 51 52 52 52 51 51 52 53 52 53 54 53 54 60 61 57 52 53 55 50 47 48
19 18 16 16 18 18 17 17 17 17 16 17 15 15 18 18 20 29 31 30 33 37 42 43 44 48 51 52 53 52 49 48 48 46 42 40 42 40 38 37 36 37 39 43 44 44 46 48 50 51 52 52 51 49 48 47 45 43 42 42 43 41 41 42 41 42 46 48 48 47 45 45 45 46 50 53 54 55 55 54 53 54 53 52 53 56 56 57 62 63 60 56 55 57 54 51 51
20 19 17 18 19 19 19 19 18 17 17 18 17 15 16 18 22 30 35 36 38 42 46 48 49 51 52 52 52 50 48 49 50 48 43 41 40 37 36 35 34 36 40 44 46 46 48 50 51 50 50 50 50 48 48 47 45 43 43 43 44 43 42 43 42 43 46 46 45 47 48 47 47 48 50 52 53 54 54 53 52 54 54 52 52 54 56 58 62 63 61 59 58 58 58 59 56
21 21 19 18 19 19 19 20 19 18 18 18 17 16 16 19 25 32 36 40 43 45 48 50 51 52 52 51 50 49 49 51 52 51 48 43 39 36 37 36 33 35 39 43 45 45 48 49 49 48 47 48 48 47 45 45 44 44 44 43 43 42 42 42 41 42 45 44 42 44 47 47 47 48 49 51 51 52 51 50 50 52 56 58 58 56 56 58 62 64 61 60 62 61 64 65 61
21 21 20 18 19 19 20 20 19 19 19 18 17 17 17 17 23 33 37 39 44 47 49 49 50 51 52 50 49 50 51 52 53 53 50 44 40 38 36 35 33 36 40 43 45 45 46 48 48 47 47 47 47 46 44 43 43 44 44 42 41 41 41 40 39 40 42 41 41 43 45 46 46 45 46 48 50 50 50 50 50 52 58 62 65 63 60 60 63 66 63 60 61 63 67 69 64
20 20 20 18 19 19 20 20 20 20 19 19 18 17 17 16 22 33 36 37 43 47 48 48 49 50 49 47 48 50 50 51 53 52 48 43 41 39 34 31 33 38 40 41 43 44 45 47 47 47 47 48 47 45 45 43 43 44 43 41 41 41 38 36 36 37 39 40 40 42 44 45 44 43 43 45 48 49 51 52 53 54 58 62 66 67 64 62 65 69 68 62 59 60 65 68 66
19 20 20 19 19 19 20 20 20 20 19 19 18 17 17 15 20 30 35 38 42 45 46 46 48 48 46 45 46 49 49 50 51 48 45 44 42 39 33 31 34 38 39 39 42 44 44 45 45 47 49 48 46 45 45 44 43 42 41 40 39 38 35 34 35 36 38 39 39 40 41 41 41 40 42 45 47 49 51 54 56 56 58 62 66 68 67 65 66 71 74 69 62 59 61 64 65
19 20 20 19 19 19 20 20 19 19 19 19 18 17 18 14 17 27 35 39 40 42 44 44 48 48 45 45 46 49 50 49 47 44 43 43 42 40 37 36 37 38 38 40 43 44 43 43 45 46 45 44 44 44 44 42 41 39 39 38 36 34 33 33 35 37 38 39 39 39 39 38 36 38 43 46 48 50 51 54 57 58 59 63 66 70 70 67 67 71 78 79 73 68 68 68 65
20 20 19 19 19 20 20 20 19 19 19 18 17 17 17 14 14 24 33 36 36 39 43 44 47 47 46 47 49 50 50 48 46 43 41 42 42 41 41 41 40 40 40 42 43 42 41 43 43 41 40 41 42 41 41 40 38 37 37 37 33 31 31 32 33 34 35 35 35 36 35 35 35 38 41 44 46 48 50 52 56 59 61 64 65 68 70 69 68 70 77 83 82 78 77 76 73
17 19 20 20 19 20 20 19 20 19 19 18 17 17 16 13 13 21 30 34 36 38 43 45 45 46 45 46 49 51 50 48 45 42 40 40 40 42 44 43 41 40 39 40 41 40 42 42 40 39 38 39 39 38 38 36 35 35 36 34 31 29 28 29 29 29 29 30 31 32 33 33 34 36 38 39 41 43 46 48 52 56 60 64 66 66 68 69 70 70 73 80 83 81 79 81 81
15 16 19 20 18 19 19 18 19 19 19 18 16 16 16 12 13 21 29 36 39 38 42 44 43 45 45 44 45 48 48 47 46 44 40 39 39 41 44 44 41 39 38 38 38 38 40 40 40 39 37 36 35 34 32 32 32 33 33 32 30 27 26 27 27 27 28 28 29 30 31 31 31 33 34 35 37 40 43 45 48 51 56 61 64 66 67 68 69 69 69 75 81 82 81 83 83
14 14 16 18 18 19 18 17 18 19 19 18 16 15 14 13 15 22 30 37 40 39 43 44 44 46 45 43 43 44 45 45 47 47 44 42 41 42 45 46 43 41 38 35 35 34 35 37 38 37 34 33 32 31 30 31 30 31 32 32 31 28 26 25 26 26 27 29 29 30 30 31 31 33 33 35 36 38 41 44 46 49 52 55 60 64 66 67 68 68 69 74 79 83 85 85 85
13 13 14 16 17 18 18 17 17 19 18 17 16 14 14 14 15 20 28 37 40 39 43 43 43 44 41 42 45 47 48 48 50 50 49 49 46 45 47 46 44 41 36 32 32 32 32 34 35 34 33 32 32 33 32 30 29 29 31 32 30 27 25 24 25 26 27 28 29 29 31 32 33 34 35 36 36 37 39 41 43 46 49 50 54 58 60 63 65 68 71 72 76 82 86 87 88
12 13 14 14 15 16 17 17 17 18 18 17 17 16 15 14 14 17 23 33 39 40 43 43 41 39 38 42 48 50 51 51 54 55 55 55 50 47 47 46 43 39 35 33 32 32 32 32 33 34 34 34 34 34 31 30 29 28 29 29 28 26 25 25 26 28 28 28 29 30 31 32 34 36 37 37 37 38 38 39 40 42 44 46 48 51 54 57 60 65 68 69 74 81 86 88 89
12 12 13 13 13 14 15 16 17 18 19 18 17 18 17 15 15 16 19 29 39 41 42 41 38 37 39 44 49 52 52 53 56 58 59 57 53 49 49 47 43 40 37 34 33 32 32 33 34 36 36 35 34 32 31 31 29 27 27 28 27 26 27 27 28 29 28 29 30 31 32 34 37 38 40 40 40 39 38 38 38 39 41 42 44 46 49 52 55 59 64 68 75 82 87 90 90
12 12 13 13 13 14 14 15 16 18 19 19 18 18 19 17 15 17 19 26 37 40 39 37 35 35 40 46 50 54 55 54 55 57 58 57 53 49 48 48 45 41 38 35 33 33 34 35 37 37 37 36 35 34 33 33 32 31 29 28 27 26 27 28 28 29 30 30 31 33 34 36 39 42 44 44 43 40 38 37 37 38 38 39 40 41 43 47 50 54 60 66 72 76 83 90 92
14 13 13 13 13 14 15 16 16 17 18 18 18 18 20 18 17 20 22 24 31 34 33 33 32 34 39 45 50 56 59 59 59 59 59 58 53 47 48 49 47 41 37 36 34 34 35 37 39 39 38 37 37 37 37 36 35 34 31 29 26 25 27 28 28 29 31 33 34 36 36 39 43 45 46 47 44 42 41 41 42 44 44 43 43 42 43 44 47 51 55 60 64 70 79 86 92
14 15 14 14 14 14 17 19 18 17 18 18 18 19 21 20 19 23 24 24 26 29 31 32 31 32 37 44 50 55 58 60 61 61 59 57 52 48 48 50 48 42 38 36 36 36 35 36 39 41 40 40 39 40 40 40 40 37 34 30 27 26 28 29 29 30 32 34 36 37 40 43 44 47 53 56 52 49 50 52 52 53 53 52 50 48 47 46 47 49 53 56 59 68 77 84 89
14 14 15 14 14 15 17 20 20 19 19 19 20 21 23 22 21 23 24 23 24 27 34 37 37 36 41 49 54 55 56 58 59 60 59 56 53 49 47 49 49 46 42 40 38 37 35 34 38 40 40 40 40 41 41 41 41 40 37 33 29 29 29 30 31 31 33 34 35 38 41 44 50 59 66 65 60 57 57 56 56 57 58 57 56 55 53 51 50 49 51 55 57 64 75 83 87
14 14 14 14 14 16 18 19 21 22 21 20 21 22 25 24 23 23 24 24 27 30 35 40 42 43 47 55 58 57 57 55 55 59 59 57 55 51 46 47 51 49 45 43 40 38 37 36 37 39 39 40 40 41 41 41 41 41 39 37 34 32 32 32 32 33 36 37 37 39 44 52 60 66 65 62 62 61 57 53 52 54 56 56 57 58 58 57 55 52 49 52 54 60 74 85 88
15 13 14 14 15 18 20 21 24 25 24 22 20 22 27 25 23 26 26 27 32 34 36 40 43 46 52 58 59 59 57 54 54 57 58 57 55 53 49 50 55 53 46 43 40 39 39 38 38 39 39 40 40 41 41 41 42 41 40 39 37 36 36 35 35 37 40 41 42 43 47 56 61 62 62 64 65 60 55 52 50 51 52 52 53 56 58 58 59 57 52 52 54 58 72 85 89
15 12 13 14 15 20 23 23 26 26 25 25 21 21 26 25 24 27 29 31 35 39 41 43 45 49 55 59 60 59 56 55 55 55 56 57 57 58 55 56 60 54 45 42 41 41 43 40 39 40 40 40 40 40 40 40 40 39 38 37 36 37 39 39 39 41 43 44 45 45 45 52 60 66 67 64 60 55 53 53 52 50 48 48 50 51 54 56 58 60 57 55 55 58 69 84 89
14 11 13 14 16 23 25 24 27 27 26 28 25 22 25 28 27 28 31 35 38 42 44 45 48 52 56 58 59 57 55 57 56 55 56 56 58 63 60 58 60 53 47 47 45 45 47 43 41 40 40 41 40 39 38 37 37 38 39 39 38 39 41 42 42 44 45 45 45 44 43 47 55 61 59 54 51 49 49 50 50 49 47 47 48 48 50 52 55 58 59 57 55 60 70 82 91
14 13 14 15 19 26 27 26 30 29 28 30 27 23 24 28 29 28 32 38 41 43 45 46 49 54 57 57 56 56 57 57 55 56 59 56 58 64 64 61 61 55 52 53 48 46 47 44 41 40 40 40 40 39 39 39 39 39 40 41 41 41 42 44 45 46 46 45 43 42 42 43 45 48 50 48 47 45 47 48 48 48 48 48 47 47 48 51 53 55 58 60 61 66 73 81 91
14 15 15 17 22 28 29 32 35 35 35 32 27 24 24 26 29 30 34 39 41 43 47 50 52 55 58 56 55 56 56 56 56 58 61 58 56 61 64 65 64 59 53 50 47 45 44 43 42 41 40 40 41 41 41 41 42 43 43 44 44 44 45 46 46 45 44 42 41 40 40 41 42 44 47 47 46 47 48 47 46 46 47 49 50 50 52 54 56 55 57 63 66 68 73 79 88
15 15 16 18 24 27 29 35 38 38 39 34 28 27 24 24 30 37 41 40 40 42 44 48 51 53 54 53 54 54 55 58 60 60 62 61 58 60 63 65 66 60 52 46 45 46 45 45 44 43 43 44 44 45 45 46 47 48 48 48 48 47 46 46 45 44 41 39 39 39 39 42 43 45 46 46 46 46 46 45 46 48 50 54 55 56 57 56 58 60 61 66 69 69 71 76 84
17 16 17 22 27 29 31 39 44 42 37 33 31 29 26 28 35 44 48 44 42 43 42 44 47 49 52 54 54 54 56 61 63 61 63 64 62 63 63 64 64 58 51 48 47 46 46 46 45 45 46 47 48 48 49 50 50 50 49 47 47 47 46 45 44 42 41 40 39 40 41 42 44 45 45 45 44 43 44 45 45 48 52 56 58 60 60 57 59 64 66 70 74 73 72 75 82
18 17 19 24 29 32 34 42 46 40 33 32 31 27 30 39 44 47 50 47 44 44 44 45 47 49 54 56 56 56 57 61 64 64 64 63 63 64 62 61 61 58 54 52 49 46 45 45 46 46 48 49 49 50 51 51 49 47 45 44 44 44 44 44 43 42 41 40 40 41 42 42 43 44 43 42 42 42 43 42 43 47 52 56 58 60 63 62 63 66 69 72 76 78 80 81 84
18 17 19 22 27 31 34 40 42 37 33 33 31 33 45 55 53 50 50 49 48 49 49 49 52 54 57 58 59 59 58 59 62 62 63 64 64 64 62 58 60 60 57 54 49 44 43 45 47 47 48 48 49 51 51 49 46 44 43 43 42 41 42 42 41 41 40 40 40 42 42 42 42 41 41 40 40 40 41 42 46 52 57 60 60 62 66 67 66 67 70 71 73 77 80 81 86
18 18 20 21 23 26 33 40 43 39 32 34 46 56 63 65 58 53 52 50 51 55 56 56 57 58 59 60 60 60 60 59 59 58 60 65 66 64 62 60 62 63 58 52 47 43 44 46 48 47 47 48 49 50 48 46 45 44 44 43 41 41 41 41 40 39 39 40 40 41 40 40 40 40 39 39 38 40 44 48 52 58 64 66 66 68 69 69 68 67 70 72 73 74 71 74 84
23 21 19 19 20 26 36 38 40 43 36 42 63 73 70 68 64 59 56 52 53 58 63 64 62 62 63 63 63 62 60 59 61 60 59 64 66 64 62 62 62 61 55 49 45 45 46 47 47 47 47 48 48 47 45 44 45 45 44 42 41 40 40 39 39 38 39 40 39 39 39 39 38 38 38 38 40 43 48 51 55 62 69 72 73 74 72 70 71 71 70 72 75 73 69 71 79
26 22 18 19 20 27 40 41 41 46 44 49 69 75 70 69 68 66 62 57 57 60 64 67 66 66 66 65 65 62 59 58 62 65 62 63 65 64 62 61 58 53 50 47 47 47 47 46 46 47 47 47 46 45 45 45 45 44 43 42 41 40 40 40 39 39 40 40 39 40 39 38 36 37 38 40 42 46 48 51 55 64 74 77 76 76 72 70 73 72 71 73 75 73 70 71 76
28 25 22 23 23 25 34 39 41 43 42 54 73 77 71 67 66 68 66 60 59 61 65 69 69 70 69 67 65 62 58 58 63 67 66 64 64 63 61 57 52 49 48 49 48 46 45 45 46 46 47 46 45 45 46 46 45 44 43 42 42 41 40 39 40 40 40 38 39 39 37 35 34 36 39 41 43 45 47 48 55 67 77 77 75 76 75 71 72 74 73 74 76 75 71 70 74
32 32 28 27 27 25 26 32 39 41 42 56 75 76 70 68 65 64 62 60 59 59 62 67 68 70 70 67 65 60 58 61 64 67 66 63 62 61 56 52 49 48 48 49 47 45 46 47 47 48 49 48 47 47 46 46 45 44 43 42 42 40 38 37 38 38 36 36 37 37 36 35 35 37 40 42 42 45 46 48 57 69 77 76 73 74 76 75 74 75 75 73 73 73 70 68 73
33 33 32 29 27 24 26 31 35 38 43 56 72 75 69 66 64 62 62 64 62 59 60 63 66 69 70 67 63 61 61 64 65 65 63 60 60 58 54 50 48 48 48 48 46 45 47 49 49 50 50 49 48 47 46 45 44 43 43 42 40 38 38 39 39 38 37 38 39 38 37 36 36 38 40 41 42 45 47 48 57 68 76 76 72 71 74 74 74 74 74 73 71 71 71 70 73
36 33 32 31 28 27 32 37 35 34 41 51 63 70 67 65 66 65 65 66 66 64 63 63 66 68 68 67 66 65 65 67 68 65 61 59 58 56 52 49 48 49 49 47 46 46 47 48 49 50 49 49 49 47 46 44 42 42 42 41 40 39 40 41 40 39 39 40 39 38 37 37 37 38 38 39 42 46 47 48 55 66 74 76 72 70 71 71 71 72 71 71 70 71 73 73 74